Location: Gisborne
(38.6530°S, 178.0040°E)
Time: 16:52:13
(UTC+13:00)

CZ-4C R/B - Pass Details

Date: 24 January 2019
Orbit: 671 x 1331 km, 63.4° (Epoch: 20 February)

Event Time Altitude Azimuth Distance (km) Brightness Sun altitude
Rises 22:02:16 0° 205° (SSW) 3,634 6.8 -15.9°
Reaches altitude 10° 22:06:10 10° 183° (S) 2,538 5.3 -16.5°
Maximum altitude 22:09:29 15° 148° (SSE) 2,065 4.3 -16.9°
Drops below altitude 10° 22:12:33 10° 112° (ESE) 2,315 4.2 -17.4°
Enters shadow 22:13:13 - 106° (ESE) 2,446 4.3 -17.5°
